Regional Weather Roundup
Issued by NWS Northern Indiana

Home | Current Version | Previous Version | Graphics & Text | Print | Product List | Glossary On
Versions: 1 2 3 4 5 6 7 8 9 10 11 12 13 14 15 16 17 18 19 20 21 22 23 24 25 26 27 28 29 30 31 32 33 34 35 36 37 38 39 40 41 42 43 44 45 46 47 48 49 50
384
ASUS43 KIWX 180300
RWRIWX

KIWX WEATHER ROUNDUP
NATIONAL WEATHER SERVICE NORTHERN INDIANA
1100 PM EDT TUE OCT 17 2017

NOTE: "FAIR" INDICATES FEW OR NO CLOUDS BELOW 12,000 FEET WITH NO
SIGNIFICANT WEATHER AND/OR OBSTRUCTIONS TO VISIBILITY.

* THESE STATIONS ARE NOT UNDER NWS QUALITY CONTROL. THEY ALSO MAY NOT
  REPORT WEATHER SUCH AS PRECIPITATION OR FOG.

INZ001>027-180400-
NORTHERN INDIANA

CITY           SKY/WX    TMP DP  RH WIND       PRES   REMARKS
GARY*          CLEAR     59  37  44 S5        30.19R
SOUTH BEND     CLEAR     52  40  63 S7        30.21R
GOSHEN         CLEAR     52  39  61 S8        30.21R
MONTICELLO*    CLEAR     51  39  65 S6        30.22R
FORT WAYNE     CLEAR     52  39  61 SW3       30.25R
PERU/GRISSOM   CLEAR     48  40  74 SW6       30.22S

$$
INZ028>050-180400-
CENTRAL INDIANA

CITY           SKY/WX    TMP DP  RH WIND       PRES   REMARKS
LAFAYETTE      CLEAR     52  41  66 S6        30.23S
KOKOMO*        CLEAR     50  40  68 SW7       30.24R
MUNCIE*        CLEAR     54  39  57 S5        30.25S
INDIANAPOLIS   CLEAR     52  40  63 S6        30.26S

$$
MIZ043>046-050>051-056>058-064>065-071>073-077>080-180400-
SOUTHWEST LOWER MICHIGAN

CITY           SKY/WX    TMP DP  RH WIND       PRES   REMARKS
BATTLE CREEK   CLEAR     53  42  66 S9        30.20R
BENTON HARBOR  CLEAR     57  40  52 S6        30.17R
COLDWATER*     CLEAR     54  39  58 SW6       30.21R
HILLSDALE*     CLEAR     52  37  58 SW7       30.21S
HOLLAND        CLOUDY    61  42  49 SW13      30.16R
GRAND RAPIDS   PTCLDY    57  44  62 S9        30.15R
KALAMAZOO      CLEAR     54  41  61 S7        30.20R
STURGIS*       CLEAR     50  42  72 S5        30.21R
THREE RIVERS*  FAIR      51  43  73 SW5       30.21R

$$
OHZ001>008-015>018-024>025-180400-
NORTHWEST OHIO

CITY           SKY/WX    TMP DP  RH WIND       PRES   REMARKS
DEFIANCE       CLEAR     48  39  71 SW5       30.23S
FINDLAY        CLEAR     48  38  68 S8        30.24R
TOLEDO EXPRESS CLEAR     55  42  61 SW3       30.23R
TOLEDO METCALF PTCLDY    53  41  63 SW3       30.24R
LIMA           CLEAR     51  40  65 S7        30.25R

$$
AND FOR LAKE MICHIGAN COASTAL AND OPEN LAKE BUOY OBSERVATIONS

STATION/POSITION TEMP    WIND        PRES    VSBY  WAVE
                 AIR SEA DIR/SP/G                  HT/PER
                 (F)     (DEG/KT/KT) (MB)    (MI)  (FT/S)
CALUMET HARBOR    61     200/  9/ 12 1020.8R
MICHIGAN CITY     59     180/ 12/ 13   N/A
BURNS HARBOR      59     190/ 12/ 15 1022.4R
SAINT JOSEPH      63     200/ 10/ 20 1022.0
SOUTH LAKE BUOY   64 61  210/ 16/ 19 1019.6          3/ 5
4 MI NW BRIDGMAN  60 58  210/ 14/ 17 1022.0R         2/ 4
MICHIGAN CITY     59 58  200/ 10/ 12   N/A           1/ 3

$$
&&




USA.gov is the U.S. government's official web portal to all federal, state and local government web resources and services.